Regional Weather Roundup
Issued by NWS

Home | Current Version | Previous Version | Text Only | Print | Product List | Glossary On
Versions: 1 2 3 4 5 6 7 8 9 10 11 12 13 14 15 16 17 18 19 20 21 22 23 24 25 26 27 28 29 30 31 32 33 34 35 36 37 38 39 40 41 42 43 44 45 46 47 48 49 50
000
ASUS43 KOAX 011510
RWRNE

WEATHER ROUNDUP FOR NEBRASKA
NATIONAL WEATHER SERVICE OMAHA NE
1000 AM CDT SUN MAY 01 2016

NOTES: SATELLITE DATA IS BEING USED TO AUGMENT CLOUD COVER ABOVE
       12000 FEET.
       "FAIR" INDICATES FEW OR NO CLOUDS BELOW 12,000 FEET WITH NO
       SIGNIFICANT WEATHER AND/OR OBSTRUCTIONS TO VISIBILITY.

  * THESE STATIONS DO NOT REPORT WEATHER SUCH AS RAIN...SNOW OR FOG.

NEZ001>004-019>022-054>056-011600-
NEBRASKA PANHANDLE

CITY           SKY/WX    TMP DP  RH WIND       PRES   REMARKS
SCOTTSBLUFF    CLOUDY    44  32  62 N13       30.32R
ALLIANCE       CLOUDY    35  31  85 NW12      30.28R WCI  27
CHADRON        PTSUNNY   47  31  53 NE10      30.32R
KIMBALL        CLOUDY    35  32  87 N13       30.31R WCI  27
SIDNEY         CLOUDY    36  32  85 NW9       30.30R WCI  29
$$

NEZ057>060-069>072-079>082-011600-
SOUTHWEST NEBRASKA

CITY           SKY/WX    TMP DP  RH WIND       PRES   REMARKS
NORTH PLATTE   CLOUDY    42  37  82 N17G25    30.21R
IMPERIAL       CLOUDY    40  36  86 NW17G24   30.25R WCI  31
LEXINGTON      CLOUDY    44  39  84 N18G25    30.17R
MCCOOK         CLOUDY    42  38  85 N16       30.21R
OGALLALA       PTSUNNY   43  33  68 N18G25    30.25R
$$

NEZ005>010-023>029-035>040-094-011600-
NORTH CENTRAL NEBRASKA

CITY           SKY/WX    TMP DP  RH WIND       PRES   REMARKS
VALENTINE      SUNNY     46  35  65 N15       30.25R
AINSWORTH      CLOUDY    46  36  69 N21       30.22R
BROKEN BOW     CLOUDY    43  39  86 N21G31    30.16R
O`NEILL        DRIZZLE   40  38  93 N13       30.21R WCI  32
ORD            LGT RAIN  42  39  89 N17G23    30.16R
THEDFORD         N/A     40  37  87 N14       30.22R WCI  32
$$

NEZ041-046>049-061>064-073>077-083>087-011600-
SOUTH CENTRAL NEBRASKA

CITY           SKY/WX    TMP DP  RH WIND       PRES   REMARKS
GRAND ISLAND   LGT RAIN  42  39  89 N15G22    30.14R
AURORA         LGT RAIN  42  40  95 N22G28    30.12R
HASTINGS       CLOUDY    43  39  86 N21G29    30.11R
HEBRON         CLOUDY    44  42  91 N14G22    30.07R FOG
HOLDREGE       CLOUDY    42  39  89 N16G24    30.14R
KEARNEY *      CLOUDY    43  37  81 N24       30.14R
YORK           LGT RAIN  41  41 100 N17G23    30.10R
$$

NEZ011>018-030>034-042>045-011600-
NORTHEAST NEBRASKA

CITY           SKY/WX    TMP DP  RH WIND       PRES   REMARKS
NORFOLK        LGT RAIN  43  40  89 N15       30.13R FOG
ALBION         DRIZZLE   42  40  93 N15G21    30.14R
BLAIR          LGT RAIN  44  43  96 N9        30.05R
COLUMBUS *     CLOUDY    43  34  70 N13       30.12R
FREMONT        CLOUDY    44  43  97 N12G18    30.08R
TEKAMAH        LGT RAIN  44  42  93 N16       30.09R FOG
WAYNE          LGT RAIN  44  41  92 NE14      30.14R
$$

NEZ050>053-065>068-078-088>093-011600-
SOUTHEAST NEBRASKA

CITY           SKY/WX    TMP DP  RH WIND       PRES   REMARKS
LINCOLN        CLOUDY    45  43  93 N17       30.07R FOG
OMAHA EPPLEY   LGT RAIN  45  44  97 N13       30.05R FOG
BEATRICE       LGT RAIN  45  44  97 N13       30.04R
FALLS CITY     CLOUDY    51  48  89 N7        29.98S
NEBRASKA CITY  CLOUDY    46  46 100 N14       30.01R FOG
PLATTSMOUTH    CLOUDY    45  44  96 N8        30.04R
$$

NEZ044-045-051>053-067-011600-
OMAHA AREA

CITY           SKY/WX    TMP DP  RH WIND       PRES   REMARKS
OMAHA EPPLEY   LGT RAIN  45  44  97 N13       30.05R FOG
BLAIR          LGT RAIN  44  43  96 N9        30.05R
FREMONT        CLOUDY    44  43  97 N12G18    30.08R
MILLARD        HVY RAIN  45  43  95 N5        30.05R
OFFUTT AFB     PTSUNNY   46  45  93 N6        30.04R
PLATTSMOUTH    CLOUDY    45  44  96 N8        30.04R
WAHOO          CLOUDY    45  43  93 N14       30.07R
$$




USA.gov is the U.S. government's official web portal to all federal, state and local government web resources and services.